Time,TemperatureF,DewpointF,PressureIn,WindDirection,WindDirectionDegrees,WindSpeedMPH,WindSpeedGustMPH,Humidity,HourlyPrecipIn,Conditions,Clouds,dailyrainin,SoftwareType,DateUTC
2013-06-28 00:22:00,62.0,57.0,29.66,SE,135,0.0,0.0,85,0.09,,,0.35,,2013-06-28 04:22:00,
2013-06-28 00:43:00,62.0,58.0,29.66,SSW,202,0.0,0.0,86,0.09,,,0.37,,2013-06-28 04:43:00,
2013-06-28 01:02:00,62.0,58.0,29.65,SSW,202,0.0,0.0,86,0.09,,,0.39,,2013-06-28 05:02:00,
2013-06-28 01:33:00,62.0,58.0,29.65,SSW,202,0.0,0.0,86,0.06,,,0.41,,2013-06-28 05:33:00,
2013-06-28 01:43:00,62.0,58.0,29.64,SE,135,0.0,3.0,86,0.06,,,0.43,,2013-06-28 05:43:00,
2013-06-28 01:53:00,62.0,58.0,29.64,SE,135,0.0,0.0,86,0.06,,,0.45,,2013-06-28 05:53:00,
2013-06-28 02:02:00,62.0,58.0,29.63,SE,135,0.0,0.0,86,0.08,,,0.47,,2013-06-28 06:02:00,
2013-06-28 02:33:00,63.0,59.0,29.62,NNE,22,0.0,0.0,86,0.08,,,0.51,,2013-06-28 06:33:00,
2013-06-28 02:42:00,63.0,59.0,29.62,NNE,22,0.0,0.0,86,0.08,,,0.51,,2013-06-28 06:42:00,
2013-06-28 03:01:00,63.0,59.0,29.61,ENE,67,0.0,2.0,86,0.06,,,0.53,,2013-06-28 07:01:00,
2013-06-28 03:43:00,63.0,59.0,29.59,NE,45,0.0,0.0,86,0.06,,,0.57,,2013-06-28 07:43:00,
2013-06-28 03:52:00,63.0,59.0,29.59,NE,45,0.0,0.0,86,0.04,,,0.57,,2013-06-28 07:52:00,
2013-06-28 04:02:00,63.0,59.0,29.59,NE,45,0.0,0.0,87,0.06,,,0.59,,2013-06-28 08:02:00,
2013-06-28 04:43:00,63.0,59.0,29.57,NE,45,0.0,0.0,87,0.04,,,0.61,,2013-06-28 08:43:00,
2013-06-28 04:52:00,63.0,59.0,29.59,NNE,22,0.0,0.0,87,0.04,,,0.61,,2013-06-28 08:52:00,
2013-06-28 05:02:00,63.0,59.0,29.57,NNE,22,0.0,0.0,87,0.02,,,0.61,,2013-06-28 09:02:00,
2013-06-28 05:11:00,63.0,59.0,29.58,NNE,22,0.0,0.0,87,0.02,,,0.61,,2013-06-28 09:11:00,
2013-06-28 05:22:00,63.0,59.0,29.58,NE,45,1.0,2.0,87,0.02,,,0.61,,2013-06-28 09:22:00,
2013-06-28 05:33:00,63.0,59.0,29.58,NE,45,0.0,1.0,87,0.02,,,0.61,,2013-06-28 09:33:00,
2013-06-28 05:42:00,63.0,59.0,29.58,NE,45,0.0,1.0,87,0.00,,,0.61,,2013-06-28 09:42:00,
2013-06-28 05:52:00,63.0,59.0,29.58,NE,45,0.0,1.0,87,0.00,,,0.61,,2013-06-28 09:52:00,
2013-06-28 06:33:00,63.0,59.0,29.58,NNE,22,0.0,0.0,87,0.00,,,0.61,,2013-06-28 10:33:00,
2013-06-28 06:52:00,63.0,59.0,29.58,NNW,337,0.0,0.0,87,0.00,,,0.61,,2013-06-28 10:52:00,
2013-06-28 07:34:00,64.0,60.0,29.60,NNE,22,3.0,5.0,87,0.02,,,0.63,,2013-06-28 11:34:00,
2013-06-28 07:43:00,63.0,59.0,29.59,NE,45,0.0,6.0,87,0.02,,,0.63,,2013-06-28 11:43:00,
2013-06-28 08:02:00,63.0,59.0,29.59,NNE,22,0.0,1.0,87,0.02,,,0.63,,2013-06-28 12:02:00,
2013-06-28 08:34:00,64.0,60.0,29.58,North,0,4.0,4.0,87,0.00,,,0.63,,2013-06-28 12:34:00,
2013-06-28 08:43:00,64.0,60.0,29.57,NNE,22,1.0,2.0,87,0.00,,,0.63,,2013-06-28 12:43:00,
2013-06-28 09:01:00,64.0,60.0,29.57,NNE,22,0.0,3.0,88,0.00,,,0.63,,2013-06-28 13:01:00,
2013-06-28 09:11:00,64.0,60.0,29.57,NNE,22,0.0,3.0,87,0.00,,,0.63,,2013-06-28 13:11:00,
2013-06-28 10:02:00,68.0,63.0,29.57,North,0,0.0,3.0,85,0.00,,,0.63,,2013-06-28 14:02:00,
2013-06-28 10:12:00,68.0,63.0,29.57,NE,45,1.0,4.0,83,0.00,,,0.63,,2013-06-28 14:12:00,
2013-06-28 10:44:00,70.0,63.0,29.57,NNW,337,3.0,6.0,79,0.00,,,0.63,,2013-06-28 14:44:00,
2013-06-28 10:53:00,69.0,62.0,29.57,NNE,22,1.0,4.0,79,0.00,,,0.63,,2013-06-28 14:53:00,
2013-06-28 11:34:00,71.0,63.0,29.57,NNE,14,2.0,3.0,77,0.00,,,0.63,,2013-06-28 15:34:00,
2013-06-28 11:52:00,71.0,63.0,29.57,North,0,0.0,4.0,75,0.00,,,0.63,,2013-06-28 15:52:00,
2013-06-28 12:02:00,71.0,63.0,29.57,North,2,3.0,4.0,75,0.00,,,0.63,,2013-06-28 16:02:00,
2013-06-28 13:33:00,72.0,62.0,29.56,NNE,22,2.0,3.0,70,0.00,,,0.63,,2013-06-28 17:33:00,
2013-06-28 13:44:00,72.0,62.0,29.57,NNE,22,0.0,3.0,70,0.00,,,0.63,,2013-06-28 17:44:00,
2013-06-28 14:02:00,74.0,63.0,29.56,NE,45,0.0,4.0,68,0.00,,,0.63,,2013-06-28 18:02:00,
2013-06-28 14:33:00,73.0,62.0,29.57,NNE,22,0.0,0.0,68,0.00,,,0.63,,2013-06-28 18:33:00,
2013-06-28 14:52:00,70.0,61.0,29.56,NNE,22,0.0,0.0,72,0.04,,,0.67,,2013-06-28 18:52:00,
2013-06-28 15:43:00,67.0,60.0,29.56,NNE,22,0.0,0.0,79,0.04,,,0.67,,2013-06-28 19:43:00,
2013-06-28 15:53:00,67.0,60.0,29.56,NNE,22,0.0,0.0,79,0.02,,,0.69,,2013-06-28 19:53:00,
2013-06-28 16:33:00,65.0,59.0,29.55,NNE,22,0.0,0.0,82,0.08,,,0.75,,2013-06-28 20:33:00,
2013-06-28 16:52:00,66.0,60.0,29.55,NNE,22,0.0,0.0,82,0.08,,,0.75,,2013-06-28 20:52:00,
2013-06-28 17:02:00,67.0,61.0,29.55,NE,45,0.0,0.0,81,0.06,,,0.75,,2013-06-28 21:02:00,
2013-06-28 17:34:00,70.0,62.0,29.55,NE,45,0.0,0.0,77,0.00,,,0.75,,2013-06-28 21:34:00,
2013-06-28 17:43:00,69.0,62.0,29.54,NE,45,0.0,0.0,78,0.00,,,0.75,,2013-06-28 21:43:00,
2013-06-28 17:53:00,69.0,62.0,29.55,NE,45,0.0,0.0,78,0.00,,,0.75,,2013-06-28 21:53:00,
2013-06-28 18:43:00,68.0,61.0,29.54,North,0,0.0,0.0,78,0.00,,,0.73,,2013-06-28 22:43:00,
2013-06-28 18:52:00,67.0,60.0,29.55,North,0,0.0,0.0,79,0.00,,,0.73,,2013-06-28 22:52:00,
2013-06-28 19:02:00,67.0,60.0,29.55,NNE,22,0.0,0.0,79,0.00,,,0.73,,2013-06-28 23:02:00,
2013-06-28 19:11:00,66.0,60.0,29.55,NNE,22,0.0,0.0,80,0.00,,,0.73,,2013-06-28 23:11:00,
2013-06-28 19:23:00,66.0,60.0,29.55,NNE,22,0.0,0.0,80,0.00,,,0.73,,2013-06-28 23:23:00,
2013-06-28 19:43:00,65.0,59.0,29.56,NNE,22,0.0,1.0,80,0.00,,,0.71,,2013-06-28 23:43:00,
2013-06-28 19:53:00,65.0,59.0,29.56,NNE,22,0.0,0.0,81,0.00,,,0.71,,2013-06-28 23:53:00,
2013-06-28 20:02:00,65.0,59.0,29.55,NNE,22,0.0,0.0,81,0.00,,,0.71,,2013-06-29 00:02:00,
2013-06-28 20:12:00,65.0,59.0,29.55,NNE,22,1.0,2.0,81,0.00,,,0.71,,2013-06-29 00:12:00,
2013-06-28 20:23:00,65.0,59.0,29.56,North,0,0.0,0.0,81,0.00,,,0.71,,2013-06-29 00:23:00,
2013-06-28 20:33:00,64.0,58.0,29.55,North,0,0.0,0.0,81,0.00,,,0.69,,2013-06-29 00:33:00,
2013-06-28 20:42:00,64.0,58.0,29.55,North,0,0.0,0.0,81,0.00,,,0.69,,2013-06-29 00:42:00,
2013-06-28 20:52:00,64.0,58.0,29.55,North,0,0.0,0.0,81,0.00,,,0.69,,2013-06-29 00:52:00,
2013-06-28 21:01:00,64.0,58.0,29.55,North,0,0.0,0.0,81,0.00,,,0.69,,2013-06-29 01:01:00,
2013-06-28 21:11:00,64.0,58.0,29.56,NNE,22,1.0,1.0,81,0.00,,,0.69,,2013-06-29 01:11:00,
2013-06-28 21:22:00,64.0,58.0,29.56,NNE,22,1.0,2.0,81,0.00,,,0.69,,2013-06-29 01:22:00,
2013-06-28 21:32:00,64.0,58.0,29.56,NNE,22,1.0,2.0,81,0.00,,,0.69,,2013-06-29 01:32:00,
2013-06-28 21:42:00,64.0,58.0,29.56,NNE,22,1.0,2.0,81,0.00,,,0.69,,2013-06-29 01:42:00,
2013-06-28 21:51:00,64.0,58.0,29.56,NNE,22,1.0,2.0,81,0.00,,,0.69,,2013-06-29 01:51:00,
2013-06-28 22:01:00,64.0,58.0,29.56,NNE,22,1.0,2.0,81,0.00,,,0.69,,2013-06-29 02:01:00,
2013-06-28 23:11:00,62.0,57.0,29.57,NNE,22,0.0,0.0,84,0.00,,,0.59,,2013-06-29 03:11:00,
2013-06-28 23:21:00,62.0,57.0,29.57,NNE,22,0.0,0.0,84,0.00,,,0.59,,2013-06-29 03:21:00,
2013-06-28 23:32:00,62.0,57.0,29.57,NNE,22,0.0,0.0,84,0.00,,,0.59,,2013-06-29 03:32:00,
2013-06-28 23:41:00,62.0,57.0,29.57,NNE,22,0.0,0.0,84,0.00,,,0.59,,2013-06-29 03:41:00,
2013-06-28 23:51:00,62.0,57.0,29.57,NNE,22,0.0,0.0,84,0.00,,,0.59,,2013-06-29 03:51:00,